Lid_Strength_Index
8 8 8 8 9 10 10 10 12 13 15 16 17 17 17 17 15 15 15 15 15 16 15 16 16 16 17 17 17 16 16 15 16 15 15 14 14 14 14 13 13 13 12
8 8 9 9 9 10 11 11 12 14 16 17 17 17 17 17 15 15 16 16 16 17 17 17 17 18 18 18 17 16 16 15 15 16 15 15 15 14 14 14 14 13 13
9 9 9 9 10 11 12 12 13 14 16 17 17 18 18 17 16 16 16 16 16 16 17 17 18 18 18 18 17 16 16 17 16 16 16 15 15 14 14 13 13 12 12
9 10 10 10 11 12 12 13 14 15 16 17 17 17 17 17 16 16 16 16 16 16 17 17 18 18 18 17 16 16 16 16 16 17 17 16 15 14 14 14 14 12 12
10 10 10 10 11 12 14 15 16 16 17 17 18 17 17 18 17 17 17 17 17 17 17 18 17 18 16 15 16 15 16 16 16 16 17 16 15 15 15 13 14 13 12
11 11 10 11 13 14 15 16 17 17 17 18 18 18 18 18 16 16 16 17 17 18 18 18 18 16 16 15 14 14 15 15 16 15 15 15 14 14 13 14 14 14 14
12 12 12 13 14 15 15 16 17 17 17 18 18 18 18 18 15 15 16 17 18 18 18 18 17 16 15 15 14 13 13 13 14 15 15 14 13 13 13 13 13 12 12
13 13 14 14 15 15 15 16 17 17 18 18 18 18 18 18 15 15 16 17 18 18 18 17 15 15 16 16 16 15 15 14 13 12 12 12 12 12 12 11 11 11 11
13 13 14 14 14 15 16 16 16 17 18 18 18 18 18 18 15 15 16 17 18 18 17 15 15 16 15 14 16 16 15 14 13 12 12 11 10 9 8 9 11 12 12
14 13 13 14 15 15 15 16 15 16 17 18 18 17 17 17 14 14 16 17 17 16 16 16 15 15 14 13 14 14 15 14 13 14 13 11 9 9 8 9 9 10 11
14 14 15 14 15 15 15 15 16 16 17 18 18 18 18 16 15 14 14 15 13 14 14 15 14 13 12 12 12 13 12 12 12 11 10 10 10 10 10 9 9 9 10
15 15 15 15 15 15 16 16 16 17 18 18 18 18 17 17 15 13 13 12 12 14 13 13 13 12 11 11 10 11 11 9 9 9 10 11 11 11 10 10 10 10 9
16 16 16 15 15 15 16 16 16 16 17 18 18 18 18 17 16 14 13 12 11 13 12 12 12 11 11 11 11 10 9 9 9 11 11 11 11 11 11 11 11 11 11
16 16 16 16 15 15 15 15 16 16 16 17 17 17 17 17 16 15 13 12 11 11 11 11 11 13 12 10 10 11 11 11 12 11 11 11 11 12 12 12 13 13 13
15 16 15 15 15 15 15 15 15 14 14 14 14 14 15 15 15 14 13 12 11 11 14 14 13 13 12 12 13 13 12 12 12 12 12 12 13 13 13 12 13 14 16
15 15 14 15 15 15 15 16 13 13 12 12 12 13 13 12 12 12 12 12 12 12 15 14 14 13 13 13 13 13 13 15 13 14 14 14 15 14 14 14 14 15 17
14 15 15 15 16 16 16 16 17 14 13 13 13 13 13 14 13 12 12 11 11 11 14 13 12 13 13 14 14 15 15 15 16 16 15 15 15 15 16 16 16 16 17
15 16 15 15 15 15 15 15 14 14 15 15 14 14 14 13 12 12 11 11 13 12 13 14 14 14 14 15 16 16 16 17 17 17 17 17 17 17 17 17 17 18 18
16 16 16 16 16 16 16 15 15 15 15 16 15 16 14 12 11 10 11 13 14 15 16 16 16 16 17 17 17 18 18 18 17 18 18 18 18 18 18 18 18 19 19
19 19 18 17 18 17 17 17 17 17 16 16 15 15 15 15 14 17 18 17 16 16 17 17 19 19 19 19 19 19 19 20 19 19 18 18 18 18 18 19 19 19 18
19 20 20 18 18 18 17 17 17 17 16 16 16 18 18 14 16 16 18 18 17 18 19 19 20 20 20 20 20 20 20 18 19 19 19 19 19 19 19 18 18 19 19
21 21 20 20 20 19 19 18 17 17 17 17 19 18 15 17 17 18 19 19 20 20 20 20 20 21 21 21 20 20 20 20 19 19 19 20 20 19 20 19 19 19 20
21 21 21 21 21 22 20 19 18 18 18 18 18 18 18 18 19 19 19 20 22 22 22 22 21 21 21 22 21 20 19 19 19 19 20 20 20 20 20 20 20 21 21
21 21 21 21 20 20 20 20 21 22 19 19 19 19 19 20 20 20 21 21 21 22 22 22 22 22 21 22 22 22 21 21 20 20 21 20 20 20 21 20 21 21 22
21 21 21 21 21 21 21 21 21 21 21 21 21 21 21 21 21 21 21 21 22 22 22 23 23 22 23 23 22 22 22 21 21 22 22 22 21 21 22 21 22 21 23
23 23 23 22 22 22 22 22 22 22 22 21 21 21 21 21 21 21 21 22 22 22 22 22 22 23 22 22 22 22 22 21 23 23 21 21 21 21 21 22 23 23 23